Satellite: NO-44
Catalog number: 26931
Epoch time:      09357.39191279
Element set:     344
Inclination:      067.0536 deg
RA of node:       296.8915 deg
Eccentricity:    0.0006980
Arg of perigee:   265.7775 deg
Mean anomaly:     094.2547 deg
Mean motion:   14.29577078 rev/day
Decay rate:       -4.3e-07 rev/day^2
Epoch rev:           42962
Checksum:              357

Satellite: SO-50
Catalog number: 27607
Epoch time:      09357.80556063
Element set:    0062
Inclination:      064.5563 deg
RA of node:       169.1927 deg
Eccentricity:    0.0044749
Arg of perigee:   153.2557 deg
Mean anomaly:     207.0841 deg
Mean motion:   14.71483576 rev/day
Decay rate:       -2.6e-07 rev/day^2
Epoch rev:           37657
Checksum:              328

Satellite: CO-55
Catalog number: 27844
Epoch time:      09358.08179706
Element set:     741
Inclination:      098.7109 deg
RA of node:       004.5603 deg
Eccentricity:    0.0009588
Arg of perigee:   320.5375 deg
Mean anomaly:     039.5102 deg
Mean motion:   14.20674244 rev/day
Decay rate:        3.1e-07 rev/day^2
Epoch rev:           33622
Checksum:              302

Satellite: CO-57
Catalog number: 27848
Epoch time:      09357.73389326
Element set:    0692
Inclination:      098.7168 deg
RA of node:       003.2887 deg
Eccentricity:    0.0009649
Arg of perigee:   326.0600 deg
Mean anomaly:     033.9941 deg
Mean motion:   14.20471177 rev/day
Decay rate:        4.0e-08 rev/day^2
Epoch rev:           33613
Checksum:              330

Satellite: AO-51
Catalog number: 28375
Epoch time:      09357.71147622
Element set:     562
Inclination:      098.0529 deg
RA of node:       356.2904 deg
Eccentricity:    0.0083299
Arg of perigee:   270.5069 deg
Mean anomaly:     088.6578 deg
Mean motion:   14.40663263 rev/day
Decay rate:        7.0e-08 rev/day^2
Epoch rev:           28824
Checksum:              340

Satellite: CO-56
Catalog number: 28941
Epoch time:      09297.68475575
Element set:     556
Inclination:      098.0955 deg
RA of node:       138.9518 deg
Eccentricity:    0.0011688
Arg of perigee:   319.8691 deg
Mean anomaly:     040.7485 deg
Mean motion:   16.46998778 rev/day
Decay rate:  1.4491492e-01 rev/day^2
Epoch rev:           20790
Checksum:              407

Satellite: GENESAT1
Catalog number: 29655
Epoch time:      09357.59693677
Element set:    0911
Inclination:      040.0218 deg
RA of node:       072.3979 deg
Eccentricity:    0.0003541
Arg of perigee:   126.2206 deg
Mean anomaly:     233.8938 deg
Mean motion:   15.71292202 rev/day
Decay rate:     2.4142e-04 rev/day^2
Epoch rev:           17221
Checksum:              299

Satellite: CP3
Catalog number: 31129
Epoch time:      09358.34626388
Element set:     417
Inclination:      097.9644 deg
RA of node:       042.0615 deg
Eccentricity:    0.0103240
Arg of perigee:   056.4025 deg
Mean anomaly:     304.6974 deg
Mean motion:   14.52194012 rev/day
Decay rate:       1.50e-06 rev/day^2
Epoch rev:           14248
Checksum:              281

Satellite: CO-65
Catalog number: 32785
Epoch time:      09357.10010303
Element set:    0558
Inclination:      097.9204 deg
RA of node:       059.2617 deg
Eccentricity:    0.0015632
Arg of perigee:   134.5018 deg
Mean anomaly:     225.7416 deg
Mean motion:   14.81560688 rev/day
Decay rate:       4.00e-06 rev/day^2
Epoch rev:           08941
Checksum:              296

Satellite: KKS-1
Catalog number: 33493
Epoch time:      09358.45773843
Element set:      51
Inclination:      098.0702 deg
RA of node:       111.6874 deg
Eccentricity:    0.0019773
Arg of perigee:   349.9838 deg
Mean anomaly:     010.0980 deg
Mean motion:   14.80805283 rev/day
Decay rate:       3.53e-06 rev/day^2
Epoch rev:            4962
Checksum:              319

Satellite: SOHLA-1
Catalog number: 33496
Epoch time:      09357.48288457
Element set:     981
Inclination:      098.0485 deg
RA of node:       103.9828 deg
Eccentricity:    0.0007465
Arg of perigee:   047.2898 deg
Mean anomaly:     312.8941 deg
Mean motion:   14.69460229 rev/day
Decay rate:       -2.9e-07 rev/day^2
Epoch rev:            4907
Checksum:              353

/EX
SB KEPS @ AMSAT  $ORB09358.W
Orbital Elements  09358.WEATHER

HR AMSAT ORBITAL ELEMENTS FOR WEATHER SATELLITES
FROM WA5QGD FORT WORTH,TX December 24, 2009
Send Subscribe/unsubscribe to KEPS at 
http://www.amsat.org/mailman/listinfo/keps
BID: ORB09358.W
TO ALL RADIO AMATEURS BT

Satellite: NOAA-10
Catalog number: 16969
Epoch time:      09357.98118621
Element set:    0890
Inclination:      098.6749 deg
RA of node:       023.4338 deg
Eccentricity:    0.0012544
Arg of perigee:   006.9928 deg
Mean anomaly:     353.1426 deg
Mean motion:   14.27401730 rev/day
Decay rate:      -1.11e-06 rev/day^2
Epoch rev:           21058
Checksum:              308

Satellite: NOAA-11
Catalog number: 19531
Epoch time:      09357.79633826
Element set:    0902
Inclination:      098.7780 deg
RA of node:       084.7700 deg
Eccentricity:    0.0010951
Arg of perigee:   290.5039 deg
Mean anomaly:     069.4966 deg
Mean motion:   14.14911886 rev/day
Decay rate:       2.68e-06 rev/day^2
Epoch rev:           09633
Checksum:              339

